STARLINK-1788, 46689

Orbit data source: Space-Track

STARLINK-1788, 46689 is a payload satellite owned by SpaceX/Seattle (US) in LEO that was launched on Sun, 18 Oct 2020 UTC via an FALCON 9 launch vehicle from the Air Force Eastern Test Range (AFETR). Payload-class satellites include a variety of spacecraft equipped with specific instruments for various scientific and technological missions. These include communications satellites like Starlink; space stations such as the ISS; scientific satellites like the Hubble; Earth observation satellites from companies like Planet Labs, Umbra, and HawkEye 360; GPS; miniature CubeSats for education and research; and military/defense satellites.

Loading next visibility...
Identifier
46689, 2020-073V
Orbit
LEO
Country
Flag of USUS
Related business
Manufacturer
SpaceX/Seattle
Mission
Partially operational Commercial Communications
Bus & Motor
STARLINK, Unknown motor
Mass
260 kg wet, ~248 kg dry
Launch date (UTC)
2020-10-18 (5 years ago)
Launch vehicle
FALCON 9
Launch site
Air Force Eastern Test Range (AFETR)
Object type
Payload
Rocket body
Debris
Shape & HBR
Box + 1 Pan, 10.1 m
Radar Cross Section
13.562 m², Large (>1 m²)

Expand to show TLE details & history
Last TLE update: 7 hours ago

TLE from 7 hours ago
0 STARLINK-1788
1 46689U 20073V   25311.00003472  .00078313  00000-0  21748-2 0  9999
2 46689  53.0543  85.8480 0000993  43.9996 342.6121 15.36218399  5864
Epoch: 2025-11-07T00:00Z
TLE epoch observation values (Epoch: 2025-11-07T00:00:02.999Z)
Latitude
21.02301°
Longitude
56.08976°
Altitude
457.202 km
Speed
7.642 km/s
True Right ascension
06h 50m 12s
True Declination
20° 54' 11"
Sunlit
Object was in full shadow at epoch
Visualization orbit readout
Latitude
Unknown
Longitude
Unknown
Altitude
Unknown
Speed
Unknown
Apparent Right ascension
Unknown
Apparent Declination
Unknown
Sunlit
N/A
Visualization observer readout
Local Sidereal Time
03:19:02
Azimuth
Unknown
Elevation
Unknown
Doppler factor
Unknown
Orbital elements
Apogee altitude
458.257 km
Perigee altitude
456.899 km
Semi-major axis
6,835.715 km
Eccentricity
0.0001
Inclination
53.0543°
RAAN
85.848°
Arg. of periapsis
43.9996°
True anomaly
342.6087°
Mean anomaly
342.6121°
Eccentric anomaly
342.6104°
Mean motion
3.84032 °/min
Orbital period
93.74 mins
BSTAR
0.0021748
Loading maneuver chart data...
Computing Atmospheric mass density...
Loading historical data...
Loading historical data...
Loading historical data...
Loading historical data...
Loading historical data...
Loading historical data...
Loading historical data...

Documentation

Showing up to 5 results
|